Regional Weather Roundup
Issued by NWS

Home | Current Version | Previous Version | Graphics & Text | Print | Product List | Glossary On
Versions: 1 2 3 4 5 6 7 8 9 10 11 12 13 14 15 16 17 18 19 20 21 22 23 24 25 26 27 28 29 30 31 32 33 34 35 36 37 38 39 40 41 42 43 44 45 46 47 48 49 50
000
ASUS43 KFSD 300810
RWRSD

WEATHER ROUNDUP FOR SOUTH DAKOTA
NATIONAL WEATHER SERVICE SIOUX FALLS SD
300 AM CDT SAT AUG 30 2014

NOTE: "FAIR" INDICATES FEW OR NO CLOUDS BELOW 12,000 FEET WITH NO
SIGNIFICANT WEATHER AND/OR OBSTRUCTIONS TO VISIBILITY.


SDZ001>005-009-010-012>017-300900-
NORTHWEST AND NORTH CENTRAL SOUTH DAKOTA

CITY           SKY/WX    TMP DP  RH WIND       PRES   REMARKS
BUFFALO          N/A     54  51  90 SE9       29.93F
FAITH            N/A     55  54  96 SE7       30.00F
MOBRIDGE       CLEAR     52  52 100 N5        29.96S
$$

SDZ012>016-024>037-041>051-057-063-072>074-300900-
SOUTHWEST AND SOUTH CENTRAL SOUTH DAKOTA

CITY           SKY/WX    TMP DP  RH WIND       PRES   REMARKS
RAPID CTY ARPT CLEAR     51  49  92 CALM      30.02F
PIERRE         CLEAR     54  54 100 NW8       29.97S
CUSTER         CLEAR     48  46  93 NW3       30.11F
ELLSWORTH AFB  CLEAR     58  54  86 S3        30.01F
PHILIP         CLEAR     55  52  89 CALM      29.99F
PINE RIDGE     CLEAR     50  49  96 E3        30.01F
WINNER         FAIR      56  55  97 NW6       29.98R
$$

SDZ004>011-016>023-039-040-300900-
NORTHEAST SOUTH DAKOTA

CITY           SKY/WX    TMP DP  RH WIND       PRES   REMARKS
ABERDEEN       CLOUDY    59  56  89 NW8       29.93R
WATERTOWN      CLOUDY    60  59  96 N10       29.88S FOG
SISSETON         N/A     60  58  92 N12       29.87S
$$

SDZ017-020-022-023-036>040-048>070-300900-
SOUTHEAST SOUTH DAKOTA

CITY           SKY/WX    TMP DP  RH WIND       PRES   REMARKS
SIOUX FALLS    PTCLDY    66  64  93 NW7       29.86R
HURON          CLOUDY    61  59  93 N12       29.91R
CHAMBERLAIN    CLEAR     59  57  92 N6        29.96R
MITCHELL       MOCLDY    61  60  97 MISG      29.92R
YANKTON        MOCLDY    64  63  94 NW10      29.89R
$$

ABBREVIATIONS USED IN REMARKS
   TC - TEMPERATURE IN CELSIUS
  WCI - WIND CHILL INDEX
   HX - HEAT INDEX
  VSB - VISIBILITY




USA.gov is the U.S. government's official web portal to all federal, state and local government web resources and services.